カタログに戻る

STARLINK-35500

運用中通信VLEO
NORAD 66093·PAYLOAD·🇺🇸 United States

打ち上げ Oct 19, 2025 から Vandenberg Space Force Base

Loading…

次のパス (今後24時間)

TLE

最新Source: CelesTrak SupGP

元期: Sep 15, 2026, 03:37 UTC

1 66093C 25236H   26258.15118056  .00019376  00000+0  57244-3 0  2580
2 66093  53.1571 302.3695 0001230  95.9816 234.8314 15.34382840    14

AllMySatでSTARLINK-35500をリアルタイム追跡

Download on the App Store